SL-16 DEB, 22577

Orbit data source: Space-Track

SL-16 DEB, 22577 is space debris in LEO originally from a launch on Fri, 26 Mar 1993 UTC launched from the Tyuratam Missile And Space Complex (TTMTR). Debris objects in space refer to the collection of defunct objects orbiting the Earth. Examples of debris include non-operational satellites, rocket bodies, and fragments generated from explosions, collisions, or faulty payload assembly.

Loading next visibility...
Identifier
22577, 1993-016E
Orbit
LEO
Country
Flag of CISCIS
Related business
Manufacturer
Yuzhnoe
Mission
Spacecraft
Bus & Motor
SEP MOTOR COVER, Unknown motor
Mass
~0 kg wet, ~1 kg dry
Launch date (UTC)
1993-03-26 (33 years ago)
Launch vehicle
Unknown
Launch site
Tyuratam Missile And Space Complex (TTMTR)
Object type
Payload
Rocket body
Debris
Shape & HBR
Unknown shape, 0.6 m
Radar Cross Section
Medium (>0.1 m² and <1 m²)

Expand to show TLE details & history
Last TLE update: 11 hours ago

TLE from 11 hours ago
0 SL-16 DEB
1 22577U 93016E   25302.54416413  .00000251  00000-0  83144-4 0  9994
2 22577  71.0378 111.4515 0113542  84.0818 334.7685 14.43799688715754
Epoch: 2025-10-29T13:03Z
TLE epoch observation values (Epoch: 2025-10-29T13:03:35.780Z)
Latitude
53.68036°
Longitude
-94.86091°
Altitude
681.23 km
Speed
7.56 km/s
True Right ascension
09h 16m 36s
True Declination
53° 30' 51"
Sunlit
Object was in daylight at epoch
Visualization orbit readout
Latitude
Unknown
Longitude
Unknown
Altitude
Unknown
Speed
Unknown
Apparent Right ascension
Unknown
Apparent Declination
Unknown
Sunlit
N/A
Visualization observer readout
Local Sidereal Time
19:43:34
Azimuth
Unknown
Elevation
Unknown
Doppler factor
Unknown
Orbital elements
Apogee altitude
824.729 km
Perigee altitude
663 km
Semi-major axis
7,122.001 km
Eccentricity
0.01135
Inclination
71.0378°
RAAN
111.4515°
Arg. of periapsis
84.0818°
True anomaly
334.20667°
Mean anomaly
334.7685°
Eccentric anomaly
334.48831°
Mean motion
3.6111 °/min
Orbital period
99.69 mins
BSTAR
0.000083144
Loading maneuver chart data...
Computing Atmospheric mass density...
Loading historical data...
Loading historical data...
Loading historical data...
Loading historical data...
Loading historical data...
Loading historical data...
Loading historical data...

Documentation

Showing up to 5 results
|